{"data":{"norad_id":64386,"intl_designator":"2025-127S","name":"STARLINK-34269","alt_names":[],"object_type":"PAYLOAD","status":"ACTIVE","operator":null,"country":"US","launch_date":"2025-06-13","launch_site_code":"AFETR","launch_vehicle":null,"mission":null,"orbit_class":"UNKNOWN","rcs_meters":null,"size_class":null,"mass_kg":null,"dimensions":null,"purposes":["comms"],"wikipedia_slug":null,"has_3d_model":false,"image_url":null,"decayed_at":null,"tle_current":{"epoch":"2026-09-19T10:44:37.851648Z","epoch_age_seconds":226066,"freshness":"STALE","line1":"1 64386U 25127S   26262.44766032  .00009502  00000+0  35423-3 0  9999","line2":"2 64386  43.0008 165.2091 0000909 270.1183  89.9565 15.27593923 72106","mean_motion":15.27593923,"eccentricity":9.09e-5,"inclination_deg":43.0008,"raan_deg":165.2091,"arg_perigee_deg":270.1183,"mean_anomaly_deg":89.9565,"bstar":0.00035423,"rev_number":7210,"period_min":94.265889535095,"perigee_km":482.38372785904,"apogee_km":483.63108391203,"semimajor_km":6861.1444058855,"source":"CELESTRAK","updated_at":"2026-09-21T09:00:35.325217Z"}}}